GFSNW_850_spd_057.txt.gz
Wind_Speed
29 31 30 29 27 24 23 23 6 17 23 9 6 10 7 13 13 8 3 4 3 3 6 3 2 3 4 12 8 5 9 5 13 19 8 3 4 7 8 5 4 2 4 9
35 33 31 28 28 27 23 12 8 26 32 10 12 4 11 12 6 8 3 3 5 4 2 3 3 6 8 16 9 0 2 3 10 8 4 5 6 5 7 3 3 8 7 6
37 35 32 31 30 33 30 9 5 10 24 9 15 8 9 13 19 7 3 3 3 1 3 3 5 5 5 23 7 8 5 4 7 12 7 4 4 8 7 10 6 4 8 9
37 37 36 34 33 37 31 15 6 9 7 15 9 15 8 15 12 16 2 5 13 5 2 3 4 9 12 5 5 3 4 2 7 12 10 13 8 7 8 7 10 12 10 10
38 37 36 35 36 36 37 10 6 9 3 21 20 15 15 14 16 6 9 13 7 5 11 8 6 12 5 6 3 4 1 2 7 6 8 8 14 16 20 14 7 8 6 6
39 37 36 37 38 38 32 26 16 8 10 13 16 20 18 14 11 13 28 9 7 8 14 15 20 20 17 12 11 4 3 3 4 4 12 9 10 12 17 8 6 7 8 9
38 37 37 38 41 46 39 25 17 11 5 13 13 15 22 23 18 19 7 19 9 11 16 19 22 20 20 15 9 9 4 4 3 1 6 4 7 6 12 15 14 8 6 6
33 34 35 38 40 45 49 35 23 20 9 9 17 17 19 25 28 18 20 22 20 10 16 3 4 3 4 8 9 9 6 4 3 3 4 8 18 6 4 8 19 13 11 9
31 32 33 36 38 41 45 44 33 24 6 16 13 18 21 9 10 12 15 27 22 6 1 2 4 3 4 4 1 8 5 4 4 3 3 6 5 10 20 6 14 6 9 9
31 31 30 31 32 35 46 36 46 18 11 17 25 17 17 18 12 5 8 12 14 24 2 2 3 5 4 3 4 4 5 2 6 3 3 7 7 10 19 5 13 5 6 6
33 35 35 34 34 34 34 32 31 41 12 9 18 31 15 19 24 5 8 5 4 3 5 3 3 3 5 5 4 5 6 5 4 4 4 8 7 9 4 15 13 8 8 12
36 37 36 36 37 36 34 23 34 25 16 8 24 27 27 33 36 30 17 10 7 11 4 3 1 2 1 4 3 2 2 5 5 7 6 7 4 3 12 32 38 12 8 11
32 33 37 39 38 38 38 30 29 26 8 10 13 24 31 25 24 32 16 16 17 7 8 4 3 5 3 3 5 4 2 4 5 2 7 15 23 30 31 41 39 16 9 15
31 31 32 34 37 41 40 40 31 30 7 3 5 26 22 22 26 27 30 23 23 16 11 3 2 2 4 4 4 4 5 5 3 7 7 16 26 31 38 35 32 29 16 11
32 30 31 34 34 42 41 38 34 34 8 5 4 7 16 20 28 21 21 30 26 16 3 2 2 3 2 2 2 1 3 3 1 3 12 14 15 17 14 14 18 10 11 9
29 32 35 33 33 47 38 12 34 23 20 3 2 3 9 16 25 27 18 22 20 14 7 3 6 7 3 3 4 4 7 5 4 6 16 31 23 10 15 12 9 5 1 5
26 31 36 33 36 49 30 12 15 39 19 3 1 2 7 19 21 18 18 13 9 7 6 5 5 5 4 1 3 6 7 10 6 13 14 8 12 11 14 10 9 7 8 9
33 34 35 34 48 41 13 6 24 38 16 5 1 3 5 11 8 7 8 9 7 5 4 2 3 2 4 2 6 8 10 11 5 10 10 8 6 9 12 12 9 8 10 11
35 43 51 42 26 9 12 20 36 27 5 3 3 3 3 11 5 6 4 5 2 1 2 3 4 2 2 5 9 11 12 9 13 15 9 10 10 10 12 12 11 14 15 13
45 41 14 8 9 31 31 13 6 7 6 6 1 1 2 5 4 2 3 2 2 3 4 6 3 3 9 12 10 11 12 10 9 14 6 9 9 8 8 10 12 13 12 11
18 6 8 31 33 13 6 5 4 6 2 2 2 4 4 4 3 3 2 3 3 3 3 3 2 2 4 13 11 10 8 6 3 1 3 4 1 4 5 9 11 11 12 14
12 24 27 16 5 3 4 3 0 3 2 4 3 4 5 5 3 3 3 3 3 2 3 3 2 3 9 10 10 10 9 7 7 7 7 6 7 8 9 12 14 17 16 16
6 5 6 6 7 9 5 4 3 3 4 7 3 3 4 4 5 3 2 3 3 3 3 3 2 6 8 8 8 10 11 11 14 17 18 17 19 18 20 23 21 23 26 26
9 7 7 4 5 4 2 1 2 3 4 7 6 5 3 4 3 2 3 2 4 3 3 2 2 10 9 10 10 14 17 19 21 23 23 25 27 28 30 29 27 28 29 27
8 8 5 4 4 7 6 8 2 7 6 3 6 6 5 4 4 3 3 5 4 3 1 1 6 12 16 17 17 20 22 24 26 26 28 29 30 32 33 30 29 29 29 29
7 10 4 10 3 6 11 15 10 11 6 4 6 3 4 4 2 5 4 3 3 1 2 11 16 19 19 20 21 23 25 26 27 28 28 29 29 29 29 27 26 26 25 26
6 5 18 7 4 4 8 12 14 8 6 3 3 5 5 3 3 3 4 3 3 11 17 18 18 20 20 20 21 21 22 23 24 25 25 24 23 23 24 26 23 22 22 22

GFSNW_850_spd_063.txt.gz
Wind_Speed
27 26 24 20 16 13 14 11 4 8 12 10 4 3 7 7 5 3 4 2 4 3 5 5 6 7 6 13 13 3 3 2 3 4 2 4 4 8 10 5 5 1 1 8
27 26 24 21 18 16 14 8 12 14 15 6 10 3 5 5 5 4 0 1 2 2 3 4 4 5 8 18 10 6 5 3 2 4 3 3 5 5 4 2 1 12 7 4
29 27 25 22 20 20 18 8 3 11 19 16 12 8 7 6 7 5 5 3 2 3 3 2 4 4 6 14 7 15 3 2 1 4 3 3 2 3 9 11 4 5 6 7
31 29 27 25 24 22 19 11 6 7 4 12 11 14 12 13 8 8 4 4 11 6 5 4 5 6 5 9 12 6 5 2 4 5 4 3 3 8 9 9 11 10 9 9
33 33 30 28 28 26 25 8 7 9 8 6 16 12 13 14 11 8 4 7 2 7 7 6 4 5 4 3 7 7 8 1 1 2 4 2 6 8 6 6 4 7 10 10
36 35 34 32 32 29 22 23 23 11 9 6 7 5 12 15 11 6 14 5 6 9 11 10 14 15 14 12 7 5 4 1 1 2 4 5 1 2 1 1 1 3 4 10
38 37 36 36 37 37 38 16 18 12 9 9 11 10 13 13 17 12 9 17 12 3 4 19 15 12 14 13 12 11 5 2 2 1 4 2 2 1 4 3 1 4 2 9
42 42 42 42 43 41 41 34 19 14 7 13 12 14 14 16 10 17 16 12 3 2 3 3 5 2 2 7 11 14 12 4 2 2 5 4 8 2 3 3 3 9 7 10
40 41 40 39 39 39 39 40 37 11 8 16 21 12 20 11 9 6 12 12 7 9 3 2 3 2 2 1 3 6 11 9 3 3 3 6 4 2 3 6 2 3 7 9
29 33 36 37 38 39 40 31 44 33 7 13 28 13 8 13 10 3 5 7 9 13 4 3 3 2 2 2 1 3 5 4 10 2 4 4 5 4 5 3 3 12 5 9
25 25 29 33 33 40 40 41 32 43 5 13 27 28 21 18 20 6 9 6 2 4 5 3 3 3 3 1 2 3 6 7 4 4 4 5 2 2 3 7 10 12 16 14
28 27 25 24 23 32 37 28 40 35 28 4 24 28 26 32 32 21 21 8 6 8 3 4 3 3 1 4 2 1 2 4 3 6 4 1 2 2 5 8 10 11 18 30
28 27 26 28 25 25 35 32 29 33 25 25 23 15 27 27 30 26 13 13 10 7 7 4 2 3 3 3 4 1 2 3 2 0 0 3 2 4 12 16 15 19 20 25
23 33 30 27 27 24 28 34 35 34 11 3 5 29 26 34 25 26 27 17 14 17 8 2 2 2 4 2 1 3 2 2 2 3 4 7 8 11 16 17 20 21 20 19
25 30 31 31 29 26 22 26 31 31 15 3 4 15 32 28 31 34 33 23 14 7 2 1 2 2 2 1 0 3 1 2 2 2 5 5 9 16 16 13 16 18 20 19
29 27 28 32 32 32 28 7 20 26 15 2 3 5 15 28 26 27 27 25 24 19 8 3 4 3 3 2 2 2 3 3 4 4 12 14 15 10 11 16 15 15 15 16
32 31 29 31 35 39 24 8 11 27 18 5 2 3 6 24 20 19 15 19 13 12 6 8 8 4 4 2 5 3 6 7 6 6 10 4 7 8 17 15 12 11 11 11
32 29 27 27 40 36 19 6 14 31 14 5 2 2 5 17 7 5 11 7 11 9 3 3 4 10 3 3 6 6 9 12 5 11 9 12 11 12 13 13 11 8 8 9
32 34 32 43 31 12 14 12 30 21 5 4 2 4 4 15 6 7 7 5 1 4 3 2 5 3 2 6 7 8 9 8 13 15 12 4 5 8 12 13 10 8 8 8
38 40 13 7 11 33 37 20 9 4 3 3 1 4 2 11 5 3 6 5 3 3 2 5 2 3 8 9 7 6 8 9 10 10 6 11 9 9 9 8 7 6 6 6
19 6 7 42 36 10 5 4 3 3 2 5 4 7 3 9 4 3 5 3 3 4 1 2 2 2 3 7 8 10 9 8 7 4 6 5 4 2 4 6 7 7 9 12
17 31 20 9 5 4 5 2 3 3 2 3 3 5 6 5 5 3 3 2 2 2 2 3 2 3 7 8 9 10 8 7 7 5 4 5 5 6 7 10 13 14 15 18
20 6 6 6 8 8 3 2 1 1 4 4 3 4 4 4 3 3 2 3 3 2 3 2 3 6 7 7 7 9 8 7 8 11 11 11 13 14 15 18 18 19 22 23
9 6 6 4 4 3 2 1 1 4 5 10 8 6 4 6 4 2 4 2 3 3 2 2 2 6 6 7 7 9 12 12 14 16 17 19 21 23 22 22 21 22 24 23
7 7 5 4 3 3 5 4 2 7 6 6 5 7 5 4 5 4 3 3 3 2 2 1 2 4 7 9 11 13 14 16 17 18 20 21 22 23 24 23 23 23 23 23
6 9 4 7 2 5 8 13 7 11 8 6 6 3 4 5 2 4 3 2 2 3 2 6 8 10 11 12 14 16 17 18 19 20 20 21 22 22 22 21 20 20 19 19
6 5 12 5 3 3 6 11 13 9 4 2 2 5 5 3 3 3 3 2 2 8 10 10 11 12 13 13 15 15 16 17 18 18 18 19 18 18 18 19 17 15 15 15

GFSNW_850_spd_069.txt.gz
Wind_Speed
23 23 24 24 19 15 12 14 5 9 16 14 12 10 18 21 11 15 17 16 15 15 15 11 7 1 4 6 14 12 15 6 13 15 25 23 21 19 17 10 16 15 10 5
26 24 23 23 25 18 13 12 16 9 17 9 13 16 17 21 15 17 17 18 20 16 16 8 10 4 4 4 13 10 9 9 13 6 9 18 24 23 20 14 10 9 8 7
32 24 25 25 22 20 18 7 4 17 17 19 16 17 16 18 22 20 18 16 16 16 14 16 8 5 7 7 4 20 15 11 13 13 7 12 17 18 19 18 12 15 14 11
19 19 22 21 21 22 19 12 7 8 8 15 17 17 8 20 18 16 19 18 19 14 13 17 18 16 14 6 6 5 10 6 10 15 8 5 8 10 14 16 15 13 13 15
22 22 24 24 25 24 25 10 9 14 19 16 16 19 19 16 15 15 15 17 18 17 18 17 18 12 8 8 3 0 6 3 10 13 10 5 8 10 11 13 10 10 13 11
24 23 24 24 27 28 24 23 20 15 9 15 11 11 19 17 18 20 18 22 15 15 12 14 16 14 12 11 8 3 4 3 6 2 1 4 8 12 8 10 14 13 11 5
30 28 26 28 29 30 28 20 20 14 10 12 14 17 15 16 13 16 13 22 12 3 4 10 14 16 17 16 16 13 5 7 3 4 6 5 5 2 16 11 3 4 10 4
32 34 33 32 33 30 33 26 22 17 11 18 19 16 13 10 11 11 20 16 3 2 7 6 9 10 10 15 18 16 14 6 3 2 3 6 9 3 4 13 8 6 4 4
31 32 35 37 37 36 33 32 30 18 4 15 22 17 21 12 10 10 16 5 4 1 3 5 6 7 8 8 7 18 16 12 7 6 3 4 4 12 7 9 5 7 6 6
22 31 35 38 41 39 37 32 34 28 13 26 9 13 11 17 16 7 10 9 6 6 3 5 6 6 4 5 11 13 12 11 13 9 5 4 10 3 1 10 4 7 8 11
25 24 32 31 38 44 42 42 33 37 15 28 22 18 17 21 12 5 9 6 4 4 5 4 4 4 5 3 4 11 11 9 7 10 9 11 5 3 4 6 8 9 10 11
26 26 28 29 36 37 46 36 36 30 23 14 13 31 23 17 12 8 8 3 2 6 4 5 2 4 1 5 4 10 6 7 5 9 7 8 13 17 11 9 9 11 12 13
27 23 26 29 29 35 48 45 32 34 26 25 31 26 21 26 18 11 6 11 14 7 8 3 3 5 4 4 5 2 8 4 1 4 9 7 12 13 12 11 11 12 12 12
28 26 26 28 26 32 43 42 42 35 11 5 13 19 35 14 19 18 20 19 12 7 7 4 3 3 4 2 2 4 5 1 5 4 7 9 12 13 11 11 12 13 13 12
20 22 26 27 25 29 35 42 37 36 25 5 20 16 13 26 25 19 15 18 10 5 3 4 4 3 3 2 2 4 4 3 3 2 8 8 9 10 11 13 14 13 12 12
23 20 28 30 25 26 35 13 34 39 37 6 2 11 11 16 17 21 23 18 10 4 3 5 5 6 4 2 3 11 14 13 14 6 9 7 7 7 11 11 12 11 11 11
24 24 26 31 30 30 21 5 14 40 34 5 3 3 7 18 17 18 19 18 8 8 3 4 6 5 4 3 6 7 11 10 9 11 12 7 9 6 9 9 9 8 8 9
27 27 32 32 31 23 11 6 14 37 21 6 3 2 4 15 10 8 8 5 6 7 4 4 5 6 7 1 7 9 11 8 5 12 10 5 5 5 8 8 8 6 8 8
31 29 32 34 25 6 7 19 35 33 7 4 4 5 3 13 4 5 7 4 2 5 3 2 3 2 3 5 8 10 11 10 12 12 7 4 7 7 8 8 8 6 7 8
35 50 17 7 17 26 38 18 5 6 5 4 2 2 3 12 6 3 3 5 4 3 2 5 0 3 7 5 6 7 9 9 10 10 9 10 8 7 6 6 6 5 5 5
31 6 6 33 28 15 3 4 3 5 4 6 2 4 4 2 5 3 6 2 4 3 3 3 4 3 3 5 6 8 8 8 7 6 5 5 5 4 3 5 6 7 7 9
12 25 30 21 5 3 3 4 2 5 4 4 4 4 5 3 3 3 2 2 1 0 4 3 3 3 5 6 6 7 7 7 7 8 7 7 7 7 7 8 9 10 11 12
31 11 5 2 1 3 4 7 3 4 3 2 5 4 4 3 3 4 2 3 1 3 2 3 3 7 8 7 6 7 8 8 8 9 10 10 11 12 12 13 13 13 15 14
6 4 4 3 3 3 3 4 4 4 4 7 10 5 2 3 3 2 3 1 2 3 5 3 5 7 6 6 7 7 9 9 10 11 12 14 15 16 16 15 15 15 15 14
6 5 4 4 3 4 3 2 1 4 4 5 9 6 4 3 2 0 3 4 3 4 3 3 9 7 7 7 8 8 9 10 11 12 13 15 15 16 17 15 15 15 15 15
6 8 3 2 4 6 8 8 9 6 6 4 5 3 4 2 2 2 2 2 3 3 4 10 9 8 9 9 10 11 12 12 13 13 13 14 15 15 15 14 13 12 11 10
5 5 8 6 8 9 7 8 7 5 4 2 1 3 3 3 3 3 5 4 6 12 12 11 11 11 11 11 11 11 12 12 11 11 11 12 12 11 11 12 10 9 9 8

GFSNW_850_spd_072.txt.gz
Wind_Speed
22 22 23 20 19 16 17 20 6 12 25 13 5 10 18 25 18 13 13 12 13 15 16 12 10 9 6 7 5 3 5 5 9 19 16 20 17 20 18 9 19 12 6 1
23 24 23 22 18 20 20 9 18 19 16 8 13 14 22 23 21 19 13 16 15 16 16 15 9 14 10 7 4 5 6 5 6 9 10 16 16 19 19 12 10 8 4 5
22 22 21 23 22 20 20 4 4 19 16 18 14 18 18 19 26 20 19 16 17 13 16 17 7 5 7 8 4 8 5 6 9 10 9 8 14 22 22 17 4 7 7 7
22 22 20 19 22 21 18 6 6 6 8 12 16 18 7 16 18 19 19 15 19 16 15 14 16 18 11 11 9 3 3 5 8 13 16 16 14 16 21 22 19 15 11 16
23 21 21 19 14 17 21 5 6 14 9 14 16 17 18 19 14 17 16 16 18 19 17 14 14 15 10 6 8 3 3 4 11 10 15 15 16 12 14 11 15 15 11 6
25 22 22 22 20 22 19 19 16 13 9 10 11 10 19 19 18 15 22 10 16 12 12 7 8 16 4 13 7 5 3 1 4 4 13 7 9 12 10 10 10 8 9 4
26 27 24 23 22 28 26 14 16 11 12 12 12 15 12 12 17 17 17 15 12 12 8 6 14 14 17 16 14 12 7 5 2 4 10 4 9 12 12 4 8 8 7 4
30 30 29 27 26 27 29 27 16 10 10 16 17 17 8 17 12 10 14 17 4 6 4 3 6 10 14 19 17 16 12 6 2 3 4 6 4 2 9 12 5 5 3 10
24 25 30 32 30 29 29 28 26 17 5 12 20 15 18 10 10 10 14 1 6 6 3 1 8 7 8 9 8 20 16 11 6 4 4 1 3 6 17 9 3 6 6 14
21 19 28 31 32 33 33 26 26 21 13 26 18 12 9 14 9 8 4 6 5 5 2 2 4 9 9 7 8 19 14 12 11 7 4 5 6 14 21 2 3 6 12 17
22 22 22 31 32 36 36 37 26 28 13 24 20 19 17 17 8 4 4 6 3 3 2 3 6 5 3 5 7 15 12 10 7 9 7 6 4 8 2 8 10 9 17 18
27 24 24 24 35 39 37 31 31 25 21 11 8 20 27 25 23 4 3 4 4 2 5 4 3 4 2 6 2 14 8 8 5 8 6 13 22 20 18 19 17 16 14 14
28 26 25 28 27 37 42 42 24 27 21 23 27 29 24 19 19 19 6 6 4 5 7 2 3 5 3 3 1 1 3 8 1 3 11 15 21 21 20 18 16 13 12 12
23 26 26 27 29 28 37 46 35 30 10 6 17 16 24 28 17 15 19 13 14 12 9 3 3 3 6 3 1 3 1 4 6 8 10 18 19 21 15 15 14 13 12 13
21 23 27 25 26 27 33 36 44 33 27 5 13 20 20 14 21 15 10 11 10 6 3 3 3 0 5 0 4 8 9 8 5 4 11 13 17 17 13 13 13 13 12 13
23 21 25 26 23 29 31 11 38 42 30 8 3 10 12 15 15 22 16 10 7 6 2 4 6 4 2 4 2 8 19 20 26 9 10 17 14 17 14 13 11 11 11 11
23 20 20 26 29 31 28 8 11 41 33 7 3 3 5 13 12 15 16 14 7 6 2 4 4 4 4 1 3 8 14 14 17 18 9 13 17 10 12 11 10 9 10 10
23 24 24 29 26 31 23 7 7 30 26 5 3 1 2 14 8 6 8 5 9 6 2 4 3 5 5 4 9 11 14 11 19 17 11 9 8 11 13 11 10 10 11 10
26 26 31 27 21 14 17 5 16 35 8 5 4 3 3 8 6 4 4 5 2 6 2 2 4 4 5 5 9 12 14 12 13 11 12 11 11 10 11 12 12 10 10 10
38 42 16 6 16 18 30 22 12 8 7 5 2 3 3 9 8 3 4 5 3 2 4 2 3 3 7 8 10 10 11 12 12 12 12 12 10 12 9 11 11 10 9 9
29 7 5 24 31 18 4 4 4 5 4 7 4 5 4 6 3 3 4 1 3 3 3 3 3 3 5 8 10 11 11 11 11 10 10 9 8 8 9 10 9 8 8 9
7 20 24 22 5 3 3 4 4 5 4 2 6 3 5 5 3 3 3 1 2 2 4 2 3 3 8 9 10 10 10 11 11 11 11 11 11 10 10 10 11 11 12 12
26 10 5 3 2 4 5 6 3 4 2 2 4 4 3 4 3 4 1 2 2 2 1 3 4 10 9 9 8 10 10 11 11 12 11 10 11 12 12 14 13 12 13 12
6 3 4 3 3 4 4 4 4 3 3 7 11 5 2 2 3 1 2 2 2 3 5 4 6 10 8 7 8 8 10 11 12 13 13 15 16 16 15 15 13 13 14 14
6 5 4 3 3 4 2 2 5 5 7 5 8 5 4 3 3 2 3 2 2 5 4 4 12 10 9 9 9 10 11 11 11 12 13 14 14 14 15 13 13 13 13 12
6 7 3 3 7 7 11 10 8 4 6 6 3 3 3 3 2 1 4 4 4 3 5 12 11 11 11 11 11 12 11 12 12 12 12 13 13 13 13 11 10 9 8 7
4 4 9 6 11 10 7 6 6 5 3 2 2 3 3 2 3 3 5 3 6 14 14 13 12 12 11 12 12 11 11 11 11 11 11 11 11 11 10 9 9 8 8 9

GFSNW_850_spd_075.txt.gz
Wind_Speed
20 19 18 16 15 14 14 15 4 6 10 12 5 14 7 12 26 35 17 11 8 8 9 8 7 4 5 6 4 6 1 3 5 11 11 14 13 11 11 4 4 5 4 6
20 20 19 18 16 13 15 6 14 26 16 8 12 8 15 23 20 20 12 10 9 8 7 4 6 7 9 11 4 4 3 3 4 6 5 9 4 12 15 9 4 6 2 4
20 18 18 17 15 14 16 4 3 11 17 18 7 12 15 17 24 23 23 16 15 11 8 6 5 2 5 5 4 6 1 4 6 6 11 3 4 8 16 17 3 5 10 5
21 19 17 17 16 14 15 7 5 8 3 6 12 10 1 10 17 20 22 16 12 12 8 7 5 5 8 5 10 5 3 4 6 11 14 11 12 14 15 22 17 5 6 7
21 20 18 16 15 14 17 8 3 5 5 9 5 9 7 15 15 8 9 11 8 7 7 7 9 1 4 3 3 4 4 3 3 8 9 7 15 17 15 17 20 17 18 18
24 24 21 17 15 15 10 15 19 10 5 5 5 3 4 10 10 11 9 5 9 6 9 11 5 4 6 6 4 5 3 2 3 3 7 12 8 7 12 10 9 14 10 7
24 23 23 20 18 21 21 11 10 5 4 5 7 16 8 10 14 9 10 4 14 3 10 11 10 14 13 8 8 10 5 4 1 4 6 4 4 3 3 8 5 5 5 2
23 25 25 24 22 22 26 24 18 5 4 7 10 14 11 13 13 10 8 10 4 1 6 2 4 4 4 8 12 12 11 4 1 2 5 9 4 6 3 6 8 12 13 6
21 21 21 27 25 24 26 25 23 18 3 4 13 10 12 5 6 5 8 2 2 4 3 3 2 3 5 4 4 18 9 7 4 2 4 3 4 7 5 3 4 8 15 7
20 19 17 20 27 27 28 26 24 16 11 17 18 4 6 10 8 4 9 1 0 2 3 2 4 4 4 5 5 4 10 8 10 4 2 7 4 7 3 4 4 10 16 14
21 20 18 15 26 27 30 30 23 25 11 19 17 13 16 14 11 4 12 3 3 2 1 2 3 3 4 4 6 7 9 7 5 3 4 6 15 8 3 10 15 20 20 20
26 23 21 18 18 27 29 32 28 23 18 9 6 15 23 23 20 14 4 5 4 3 2 2 3 3 3 2 3 1 4 6 5 6 3 12 22 21 23 23 23 22 23 20
23 25 24 22 21 23 33 32 23 21 24 24 27 32 31 26 20 18 7 4 4 4 7 3 2 5 2 2 2 2 4 9 2 5 10 15 25 27 28 25 24 22 20 19
19 22 25 24 23 22 31 34 29 24 7 4 13 12 18 14 14 22 19 21 10 12 9 2 2 2 6 3 5 4 4 5 5 4 2 21 25 26 23 21 20 19 14 14
18 19 21 24 24 24 24 36 37 31 17 2 7 18 17 20 15 17 22 16 13 6 3 2 2 2 3 1 2 5 9 7 1 2 14 17 12 20 17 19 17 12 13 13
20 19 19 22 24 23 25 9 34 39 30 6 4 9 20 8 11 15 18 9 5 2 2 3 6 4 2 2 3 9 18 22 27 7 24 25 16 16 15 13 12 11 12 12
21 20 20 22 23 27 24 8 7 35 31 4 3 4 4 9 15 13 16 12 5 3 2 3 4 1 3 2 3 12 18 20 23 17 8 18 15 10 11 9 8 8 11 12
21 22 20 22 24 28 15 8 7 34 23 5 3 3 2 13 6 4 8 6 7 4 2 3 3 3 6 4 8 12 16 13 20 19 19 15 15 13 12 13 10 11 13 13
26 24 24 40 29 15 12 11 16 34 9 6 4 2 1 10 4 4 4 4 1 3 2 2 3 3 5 5 10 14 17 13 13 11 11 14 14 14 13 10 12 14 14 12
34 35 14 7 15 24 26 20 10 8 7 5 2 5 1 8 3 3 4 3 2 3 4 2 3 3 12 12 14 12 13 13 11 11 13 11 12 12 12 13 12 10 9 9
29 7 6 31 25 19 3 5 5 6 3 7 7 6 1 3 2 2 3 2 2 2 3 3 2 3 4 13 13 11 10 9 10 11 9 11 10 11 10 12 11 9 9 11
10 20 26 22 6 4 4 3 3 4 5 3 5 7 4 4 4 3 3 2 1 2 3 2 2 3 12 11 10 10 10 8 8 8 9 9 9 8 10 13 13 14 14 14
33 12 5 5 1 3 6 5 2 3 3 3 6 4 4 3 3 3 1 2 1 1 3 3 3 11 11 10 8 8 7 6 9 11 11 12 13 13 13 15 13 13 14 13
6 4 4 2 3 3 2 2 2 2 4 12 13 5 3 3 3 1 3 1 1 1 3 2 3 11 8 6 6 8 11 11 12 13 14 15 15 16 15 15 13 13 15 15
6 6 4 3 2 3 3 4 4 3 6 10 8 6 5 2 3 2 3 2 3 3 2 2 14 12 9 9 9 10 10 10 11 11 13 14 14 14 15 13 12 11 10 9
5 8 3 1 3 6 8 9 4 2 5 8 5 3 3 3 1 3 3 2 3 1 3 15 13 12 11 11 10 11 11 11 11 11 12 13 12 12 12 10 8 7 5 4
4 4 12 8 11 9 7 7 6 3 3 2 2 3 3 1 3 3 3 2 3 14 18 15 13 13 13 11 11 10 10 10 9 10 11 11 10 9 9 8 8 8 8 8

GFSNW_850_spd_081.txt.gz
Wind_Speed
12 12 13 13 12 11 11 5 2 4 6 3 4 6 4 3 10 9 5 5 8 4 8 11 7 4 4 3 1 4 3 3 4 9 3 5 3 2 5 3 3 4 3 5
13 12 11 12 12 9 7 3 7 12 15 3 1 5 9 8 10 11 4 5 2 4 5 6 4 4 1 5 4 4 3 3 3 6 4 2 1 1 5 6 3 6 3 5
15 15 13 12 9 8 7 2 3 5 7 8 3 5 8 7 15 14 15 10 12 13 7 17 4 2 2 5 5 7 4 3 4 3 4 1 6 8 7 4 4 4 8 10
20 15 13 11 9 9 7 5 4 5 3 2 10 5 4 9 9 13 16 4 12 8 4 11 4 3 3 5 7 3 3 3 3 6 10 11 14 15 14 15 14 7 12 12
12 13 12 12 9 9 11 4 3 3 6 9 3 1 3 11 16 5 5 12 7 6 8 7 2 2 3 3 1 3 0 1 1 4 7 7 12 18 15 14 18 16 16 18
17 16 15 14 10 13 10 10 15 11 4 4 1 2 5 11 12 11 12 3 4 4 3 3 4 3 2 2 4 3 2 2 2 4 6 11 8 4 6 9 17 15 16 16
13 14 15 15 13 17 17 14 8 5 2 3 4 8 14 14 11 3 3 3 3 5 5 7 4 4 4 4 6 6 6 3 2 3 5 3 4 6 8 12 7 10 17 15
16 17 16 17 16 18 20 20 15 3 2 3 7 9 9 14 15 8 5 2 6 12 4 2 3 3 3 4 7 10 7 4 1 2 3 8 8 3 6 7 5 11 6 19
17 17 18 16 15 20 23 22 17 8 2 5 1 4 9 4 7 7 6 19 8 5 3 2 1 1 2 3 5 3 5 2 3 1 2 4 3 0 3 8 6 16 22 18
18 17 17 15 16 17 20 19 20 14 4 13 15 4 5 5 3 3 5 14 8 8 2 2 1 2 2 3 3 3 3 2 11 7 4 6 5 8 7 4 5 13 21 21
18 17 17 16 14 12 20 26 21 23 7 14 8 9 14 11 3 1 7 6 5 3 2 1 1 2 3 2 4 3 5 5 4 3 3 8 14 7 3 5 11 14 19 24
18 19 18 17 15 13 16 23 21 20 13 8 10 16 18 14 15 11 3 1 2 4 2 1 2 2 3 3 3 3 3 3 3 4 1 10 18 18 18 11 19 15 16 15
19 20 21 20 18 17 18 24 17 18 15 18 25 25 18 19 21 15 4 3 1 4 7 3 2 4 2 2 1 4 7 7 2 4 6 10 17 20 19 19 19 19 18 17
14 13 18 21 21 19 20 26 21 19 5 4 7 6 11 7 7 17 22 20 12 13 12 3 2 3 3 1 3 3 4 12 6 5 5 7 17 20 17 21 18 17 17 16
14 13 14 16 22 22 21 22 21 21 12 3 8 18 6 10 14 12 10 18 20 11 4 2 2 3 2 2 2 3 12 5 3 3 5 12 7 14 15 20 17 14 13 16
15 14 13 14 20 23 20 10 24 25 22 4 3 5 6 4 7 8 14 13 13 8 4 4 5 4 2 1 2 7 17 24 20 4 20 19 16 18 16 17 15 13 13 14
14 12 13 14 23 28 23 5 4 21 23 4 4 5 3 5 6 7 10 10 8 7 3 3 3 4 5 2 2 11 15 19 21 9 4 17 13 11 12 12 13 11 13 14
15 16 13 13 23 25 26 10 3 25 20 5 2 4 5 5 5 4 6 8 9 5 3 3 1 4 4 3 4 9 12 8 17 17 17 16 12 11 11 8 9 10 14 13
18 20 17 20 23 16 18 24 13 28 7 7 4 2 2 2 2 5 3 4 1 3 2 1 3 2 3 3 4 8 12 10 7 8 8 8 10 10 8 8 9 11 11 11
22 25 10 7 14 16 17 13 8 7 5 6 4 5 2 2 3 3 5 5 2 2 2 6 3 2 7 6 5 4 7 8 4 2 7 7 8 8 9 9 8 7 8 8
29 12 5 22 30 20 6 5 4 5 3 6 6 14 3 4 1 4 6 2 2 2 2 2 2 3 3 4 4 4 5 6 6 6 6 5 5 5 6 7 7 7 7 7
24 15 31 25 7 4 4 3 5 5 5 7 5 7 9 5 6 3 3 2 2 2 3 3 1 3 10 5 4 4 4 3 3 4 3 3 4 5 6 9 11 11 10 10
36 13 9 6 3 3 6 6 3 3 5 8 8 4 6 3 4 2 1 2 3 4 4 2 1 11 8 5 2 4 4 6 9 9 9 10 11 11 12 13 13 11 12 11
5 5 4 2 2 2 3 3 4 3 5 14 15 5 2 3 2 1 3 3 2 2 1 3 3 15 13 9 7 9 11 11 13 14 14 14 13 14 13 12 10 8 9 9
4 3 3 1 1 3 4 8 7 5 12 12 8 5 3 1 3 2 2 3 1 3 3 2 14 13 11 11 11 11 12 13 14 13 14 14 13 12 12 11 8 7 7 6
4 6 4 3 4 3 5 8 5 5 13 10 4 3 2 2 2 3 1 1 4 2 2 16 18 15 13 13 12 13 14 14 15 14 13 12 10 9 8 8 7 7 8 8
4 4 9 10 10 5 4 5 4 5 5 2 3 3 2 2 3 1 1 3 2 11 20 18 14 14 14 13 14 14 14 14 13 13 12 11 10 10 9 8 7 6 6 8

GFSNW_850_spd_087.txt.gz
Wind_Speed
2 2 2 3 5 7 7 4 2 2 8 2 0 2 3 7 12 10 7 6 10 13 11 7 4 7 7 21 20 5 2 3 4 3 1 4 2 4 4 2 2 2 4 6
2 3 2 4 5 4 5 2 2 3 4 2 1 5 6 7 8 6 3 5 7 10 6 6 8 6 6 22 6 5 4 1 5 3 3 2 3 4 2 3 2 5 4 3
3 4 5 6 4 2 2 2 2 2 2 1 2 3 6 5 8 12 10 11 11 15 9 10 7 7 8 14 6 8 3 3 1 3 5 3 2 3 2 3 3 5 10 17
7 7 5 3 5 1 1 2 0 1 2 2 3 3 3 9 8 4 12 6 15 13 4 5 6 5 7 7 11 3 3 4 4 2 4 3 3 6 6 7 12 7 16 16
6 3 4 3 4 3 5 4 2 2 6 9 0 3 3 9 8 5 9 9 17 12 9 9 6 2 4 4 5 5 4 2 2 2 1 4 6 11 10 10 10 13 17 20
7 6 6 7 7 6 4 4 4 3 4 2 1 2 4 10 15 13 16 19 16 12 12 11 17 14 14 8 6 2 2 3 2 3 2 7 4 1 4 7 8 9 13 14
10 9 6 9 10 8 9 7 4 3 4 3 4 9 15 13 14 13 22 14 9 2 9 14 11 12 14 13 5 1 3 3 1 2 4 1 2 8 3 5 12 11 13 17
12 10 9 9 10 11 11 13 8 4 3 5 10 10 8 13 16 10 5 14 10 14 8 2 2 1 2 3 2 3 2 3 2 1 1 4 2 4 5 9 15 14 13 18
11 12 11 10 9 12 14 14 12 7 1 3 4 7 11 7 9 9 7 26 11 3 2 1 0 1 2 2 2 7 4 2 2 1 2 2 2 10 14 9 3 15 16 18
12 12 12 11 10 10 13 15 15 16 5 9 4 3 5 6 6 6 9 21 11 14 4 3 3 2 2 2 2 1 2 1 3 2 2 5 10 16 14 3 5 12 21 19
14 13 12 12 10 11 13 15 16 18 7 16 17 13 11 13 8 5 16 9 8 6 7 4 3 2 3 3 3 3 1 2 2 2 3 3 17 5 5 3 5 14 20 22
12 13 12 11 12 12 13 13 12 13 14 10 18 24 26 21 15 8 5 2 4 5 3 3 3 2 2 2 1 5 2 4 3 4 3 7 14 12 12 15 13 17 17 16
12 13 13 11 12 14 14 13 9 16 12 18 17 10 10 9 15 17 5 4 2 3 7 4 2 3 1 2 2 3 7 10 2 2 6 12 15 15 16 15 17 18 17 16
16 15 14 14 14 15 16 16 11 12 2 2 6 7 8 9 10 8 15 22 14 11 13 4 2 3 3 2 3 3 4 9 7 2 8 8 18 17 13 15 16 19 18 19
15 16 16 16 15 18 16 14 13 9 8 2 10 20 3 7 7 9 7 12 15 8 4 3 2 2 3 3 3 3 7 4 3 3 4 13 10 12 13 16 16 15 15 19
14 13 14 7 11 21 19 11 15 15 20 3 3 6 4 7 7 6 8 6 7 5 3 4 4 1 4 2 2 3 8 12 16 4 17 19 16 14 13 15 15 15 17 17
13 13 9 11 12 24 22 7 5 17 16 3 4 6 2 2 1 5 7 7 4 5 3 3 3 3 4 2 2 5 8 13 15 10 13 13 13 8 10 13 14 16 18 18
14 12 11 10 8 22 25 4 1 13 19 3 2 4 5 2 2 2 4 4 5 5 3 3 1 2 2 3 6 7 8 7 13 15 15 14 11 11 11 12 12 16 18 17
17 13 11 19 19 14 21 9 5 17 7 4 3 2 2 2 3 2 3 4 2 2 2 1 1 1 3 3 6 7 8 5 4 9 11 11 12 12 12 12 13 16 15 16
14 15 8 5 12 13 21 14 13 12 8 5 3 4 2 4 3 1 1 3 2 2 2 5 2 2 8 7 6 6 6 7 6 4 7 8 10 11 12 13 12 13 14 14
17 8 4 17 32 13 9 6 5 6 3 6 5 14 3 5 2 2 6 1 1 2 2 1 2 2 4 7 5 6 6 7 9 9 9 8 9 10 12 13 14 14 15 16
17 12 18 23 6 4 4 3 4 4 4 7 6 7 10 5 4 2 4 2 2 2 2 1 2 3 11 8 5 6 6 7 8 8 10 11 13 14 16 17 17 16 17 16
20 7 8 5 5 4 7 7 4 3 6 9 8 4 7 4 4 4 2 2 1 3 1 1 1 11 10 8 7 8 8 9 11 14 16 17 19 19 18 19 17 15 15 14
6 7 6 5 3 4 5 4 4 5 6 16 16 6 3 5 4 1 2 0 1 1 2 2 5 13 12 10 8 10 14 14 17 18 18 17 17 18 17 16 14 11 11 11
4 6 5 5 3 2 4 7 8 6 12 18 9 4 4 1 1 1 2 2 3 3 2 2 12 17 14 13 14 16 17 18 18 18 17 16 14 12 12 12 11 10 10 10
3 3 3 5 5 4 7 7 7 11 17 13 4 2 2 2 2 3 4 4 4 2 2 16 21 17 15 17 17 18 18 17 17 15 13 12 10 9 9 9 8 7 7 7
4 2 6 7 7 7 6 8 8 13 14 2 3 3 3 3 1 2 2 3 1 7 19 21 17 18 18 18 18 17 16 14 12 11 10 9 8 7 6 5 4 4 4 5

GFSNW_850_spd_090.txt.gz
Wind_Speed
9 6 4 3 3 4 5 4 2 2 4 2 0 2 5 9 10 8 10 8 12 12 11 11 9 9 7 9 12 10 11 4 10 12 5 6 6 7 9 5 5 1 3 5
9 6 4 2 2 4 6 3 2 4 3 1 2 3 7 8 12 9 5 9 10 11 12 7 9 9 9 16 5 7 6 6 8 8 5 4 7 4 5 4 0 7 3 1
8 7 5 3 3 4 6 3 1 1 3 3 4 7 5 8 10 13 9 11 15 14 12 9 11 13 11 20 16 25 18 2 4 7 8 8 6 9 8 6 4 4 8 14
9 7 5 4 7 5 5 3 2 2 1 2 6 5 5 11 9 5 17 6 8 12 6 11 13 9 10 11 12 3 2 9 10 9 8 5 5 7 9 9 7 6 9 13
7 6 8 8 7 6 4 3 1 1 2 4 4 2 4 9 12 7 13 10 19 19 14 14 16 14 13 4 11 9 11 5 5 6 4 3 3 5 8 8 8 8 13 12
10 10 9 7 6 6 3 4 2 1 1 2 3 2 6 15 13 10 14 19 17 13 13 12 16 18 23 14 8 7 5 1 2 3 2 5 4 2 1 1 5 9 13 15
11 10 9 10 8 6 4 5 4 1 1 4 5 10 12 11 14 13 22 15 4 5 11 13 17 17 20 13 9 7 3 5 3 2 4 2 7 6 5 7 10 12 14 16
13 11 10 12 10 9 7 6 3 1 3 6 5 10 11 15 12 13 15 13 16 15 9 3 3 2 3 4 6 3 2 1 2 1 2 2 7 8 8 10 4 11 14 18
12 15 14 12 11 9 11 8 8 4 4 1 6 13 8 10 12 10 4 20 6 2 3 3 1 2 3 3 3 6 1 2 3 0 1 1 7 13 16 11 2 12 16 17
13 14 14 13 11 10 12 11 9 6 5 8 4 8 9 9 10 7 11 20 11 13 3 2 4 3 4 2 2 1 2 2 2 2 2 4 11 19 28 3 6 11 14 18
12 14 14 13 12 11 12 12 11 10 5 14 13 12 11 10 7 6 13 7 11 8 7 5 3 3 4 3 4 4 3 3 2 2 3 2 24 5 6 7 9 9 12 14
15 15 14 14 13 12 12 11 9 8 11 10 12 15 20 17 14 11 8 5 5 4 4 5 4 2 2 4 2 6 2 5 4 5 3 8 12 12 10 12 11 11 10 13
14 14 14 14 12 13 13 13 10 8 8 15 10 3 5 5 6 11 5 2 4 5 8 5 3 3 4 3 4 2 3 12 2 4 7 10 12 12 14 14 13 12 12 12
15 15 14 14 13 13 15 14 10 8 3 4 1 4 10 10 8 7 10 12 11 11 11 4 3 2 2 3 3 4 4 8 5 5 9 5 14 14 11 12 12 13 14 14
16 17 17 16 15 14 15 14 14 9 5 4 8 10 1 3 3 6 9 8 7 5 3 3 2 2 2 2 1 4 7 4 4 3 3 10 8 9 9 11 11 11 13 15
16 15 18 18 18 20 16 7 16 16 13 4 3 4 1 3 1 5 7 5 4 3 3 5 5 1 3 0 2 3 7 8 8 5 13 15 10 10 10 12 11 11 13 13
16 15 15 12 8 25 20 5 3 14 15 2 4 3 1 0 1 3 5 5 2 4 4 3 4 3 3 2 2 5 7 9 10 9 12 11 4 6 8 9 11 12 14 15
16 16 13 8 15 22 23 5 1 13 12 3 2 3 2 2 1 3 3 3 4 5 3 3 3 1 2 2 6 5 5 8 10 10 8 11 9 8 8 8 9 11 13 13
19 18 9 19 24 15 16 10 9 17 5 2 3 2 1 2 2 2 4 3 3 2 2 2 1 0 2 4 7 6 5 3 7 8 8 8 8 8 7 9 10 12 13 13
19 15 7 6 12 11 21 11 8 9 5 5 4 4 2 4 4 3 1 3 2 2 3 4 1 3 6 6 6 5 4 4 8 6 6 6 7 8 9 10 10 11 12 12
16 8 4 18 26 15 5 5 4 6 4 7 6 12 4 5 3 3 5 1 2 2 3 2 2 3 6 7 6 5 6 7 8 8 8 7 8 9 10 11 12 13 14 15
12 11 17 26 6 4 4 5 3 5 4 6 5 7 11 3 2 2 3 2 2 2 3 2 2 3 11 9 7 7 7 8 9 9 11 11 12 12 13 13 14 15 14 13
23 6 7 6 5 5 7 8 4 4 6 9 9 4 8 3 4 2 2 4 1 1 2 1 3 12 11 9 9 9 8 10 11 13 14 15 17 17 16 16 15 12 10 10
4 6 6 5 5 5 5 5 3 4 5 14 14 7 4 3 4 2 3 1 2 2 3 1 5 14 13 11 9 11 12 14 15 17 17 18 17 16 15 13 11 8 8 8
4 5 5 7 2 2 3 5 6 5 11 16 9 3 3 2 2 1 1 3 3 3 1 3 14 16 14 13 13 16 18 18 19 18 17 16 14 11 11 10 9 8 7 7
4 2 4 3 5 4 6 6 6 10 18 11 3 3 3 3 2 3 5 2 4 2 3 13 18 16 16 17 18 19 19 19 19 17 14 13 11 10 9 8 7 6 5 5
4 2 3 2 2 8 6 6 8 17 15 2 2 4 2 2 2 3 3 2 2 8 14 15 15 19 20 21 21 21 20 18 16 14 12 11 9 7 6 4 2 3 4 5